Location: Hains Lake
(37.8540°N, 99.8578°W)
Time: 22:25:36
(UTC+00:00)

deb Explorer IX - Pass Details

Date: 25 April 2021
Orbit: 541 x 1098 km, 38.8° (Epoch: 13 May)

Event Time Altitude Azimuth Distance (km) Brightness Sun altitude
Rises 12:25:14 0° 259° (WSW) 2,688 ? 5.8°
Reaches altitude 10° 12:27:26 10° 259° (W) 1,793 ? 6.2°
Maximum altitude 12:31:30 90° 220° (SW) 554 ? 7.0°
Drops below altitude 10° 12:35:48 10° 80° (E) 1,898 ? 7.8°
Sets 12:38:11 0° 81° (E) 2,861 ? 8.3°
